This is the latest recevied weather packets stored in our database for station/object KO6LQJ. If no packets are shown the sender has not sent any weather packets the latest 10 day(s).
| Time | Temp. | Humidity | Pressure | Rain* | Wind** | Luminosity | Snow |
|---|---|---|---|---|---|---|---|
| 1777425132 | 21.67° C | 38% | 1017.6 hPa | 0 mm | - | 60 W/m² | - |
| 1777424829 | 21.67° C | 38% | 1017.7 hPa | 0 mm | - | 63 W/m² | - |
| 1777424524 | 22.22° C | 37% | 1017.8 hPa | 0 mm | - | 32 W/m² | - |
| 1777424220 | 22.22° C | 37% | 1017.8 hPa | 0 mm | - | 42 W/m² | - |
| 1777423917 | 21.67° C | 37% | 1017.6 hPa | 0 mm | - | 94 W/m² | - |
| 1777423614 | 22.22° C | 36% | 1017.8 hPa | 0 mm | - | 68 W/m² | - |
| 1777423309 | 21.67° C | 37% | 1017.8 hPa | 0 mm | - | 40 W/m² | - |
| 1777423004 | 21.67° C | 38% | 1017.8 hPa | 0 mm | - | 58 W/m² | - |
| 1777422699 | 22.22° C | 37% | 1017.8 hPa | 0 mm | - | 123 W/m² | - |
| 1777422395 | 21.67° C | 38% | 1017.9 hPa | 0 mm | - | 261 W/m² | - |
| 1777422090 | 21.67° C | 38% | 1017.6 hPa | 0 mm | - | 210 W/m² | - |
| 1777421789 | 22.22° C | 38% | 1017.5 hPa | 0 mm | - | 301 W/m² | - |
| 1777421485 | 21.67° C | 37% | 1017.3 hPa | 0 mm | - | 316 W/m² | - |
| 1777421181 | 22.78° C | 37% | 1017.8 hPa | 0 mm | - | 237 W/m² | - |
| 1777420878 | 22.78° C | 37% | 1017.6 hPa | 0 mm | - | 58 W/m² | - |
| 1777420574 | 23.33° C | 36% | 1017.6 hPa | 0 mm | - | 204 W/m² | - |
| 1777420270 | 22.78° C | 36% | 1017.7 hPa | 0 mm | - | 349 W/m² | - |
| 1777419965 | 22.78° C | 36% | 1017.8 hPa | 0 mm | - | 360 W/m² | - |
| 1777419663 | 22.78° C | 37% | 1017.8 hPa | 0 mm | - | 159 W/m² | - |
| 1777419361 | 22.78° C | 37% | 1017.4 hPa | 0 mm | - | 179 W/m² | - |
| 1777419060 | 23.33° C | 36% | 1017.5 hPa | 0 mm | - | 47 W/m² | - |
| 1777418759 | 23.33° C | 36% | 1017.4 hPa | 0 mm | - | 51 W/m² | - |
| 1777418457 | 23.33° C | 36% | 1017.3 hPa | 0 mm | - | 48 W/m² | - |
| 1777418152 | 23.33° C | 36% | 1017.3 hPa | 0 mm | - | 52 W/m² | - |
| 1777417849 | 23.33° C | 38% | 1017.4 hPa | 0 mm | - | 50 W/m² | - |
* Rain latest hour (hover to see other rain measurements)
** Current wind speed in m/s (hover to see current wind gust speed)